Location: Eindhoven
(51.4416°N, 5.4697°E)
Time: 18:03:44
(UTC+01:00)

Tiros 1 - Pass Details

Date: 19 November 2019
Orbit: 630 x 664 km, 48.4° (Epoch: 10 December)

Event Time Altitude Azimuth Distance (km) Brightness Sun altitude
Rises 19:41:21 0° 278° (W) 2,927 11.8 -27.2°
Reaches altitude 10° 19:43:50 10° 269° (W) 2,020 10.7 -27.6°
Enters shadow 19:47:45 33° 212° (SSW) 1,069 8.4 -28.2°
